Weather History for Budapest Ferihegy, Hungary

Change the Weather History Date:

Wednesday, April 10, 2013

  Actual Average Record
Temperature  
Mean Temperature 47 °F -  
Max Temperature 57 °F 63 °F 77 °F (2009)
Min Temperature 37 °F 42 °F 21 °F (2012)
Degree Days  
Heating Degree Days 18    
Moisture  
Dew Point 44 °F    
Average Humidity 86    
Maximum Humidity 100    
Minimum Humidity 51    
Precipitation  
Precipitation 0.00 in - - ()
Sea Level Pressure  
Sea Level Pressure 29.82 in    
Wind  
Wind Speed 6 mph ()    
Max Wind Speed 14 mph    
Max Gust Speed -    
Visibility 4.9 miles    
Events Rain    
Averages and records for this station are not official NWS values.
T = Trace of Precipitation, MM = Missing Value Source: Averaged Metar Reports

Daily Weather History Graph

Daily Weather History Graph

Search for Another Location

Airport:

Trip Planner

Search our weather history database for the weather conditions in past years. The results will help you decide how hot, cold, wet, or windy it might be!

Date:

Astronomy

Apr. 10, 2013 Rise Set
Actual Time 6:04 AM CEST 7:25 PM CEST
Civil Twilight 5:32 AM CEST 7:57 PM CEST
Nautical Twilight 4:54 AM CEST 8:35 PM CEST
Astronomical Twilight 4:12 AM CEST 9:17 PM CEST
Moon 5:49 AM CEST (4/10) 7:46 PM CEST (4/10)
Length of Visible Light 14h 24m
Length of Day
13h 21m
New Moon, 0% of the Moon is Illuminated
Apr 10
New Moon
Apr 18
First Quarter
Apr 25
Full
May 2
Last Quarter
May 10
New

Hourly Weather History & Observations

Time (CEST) Temp. Windchill Dew Point Humidity Pressure Visibility Wind Dir Wind Speed Gust Speed Precip Events Conditions
12:00 AM 44.6 °F 39.7 °F 42.8 °F 93% 29.80 in 6.2 mi East 9.2 mph - N/A   Mostly Cloudy
12:30 AM 44.6 °F 40.2 °F 42.8 °F 93% 29.80 in 6.2 mi East 8.1 mph - N/A   Mostly Cloudy
1:00 AM 46.4 °F 41.9 °F 42.8 °F 87% 29.80 in 6.2 mi East 9.2 mph - N/A   Mostly Cloudy
1:30 AM 44.6 °F 39.7 °F 42.8 °F 93% 29.77 in 6.2 mi East 9.2 mph - N/A   Mostly Cloudy
2:00 AM 44.6 °F 39.2 °F 42.8 °F 93% 29.77 in 6.2 mi East 10.4 mph - N/A   Mostly Cloudy
2:30 AM 44.6 °F 39.7 °F 42.8 °F 93% 29.77 in 6.2 mi East 9.2 mph - N/A   Mostly Cloudy
3:00 AM 44.6 °F 40.2 °F 42.8 °F 93% 29.77 in 6.2 mi East 8.1 mph - N/A   Mostly Cloudy
3:30 AM 44.6 °F 41.4 °F 42.8 °F 93% 29.77 in 5.0 mi East 5.8 mph - N/A   Mostly Cloudy
4:00 AM 44.6 °F 42.2 °F 42.8 °F 93% 29.77 in 5.0 mi East 4.6 mph - N/A   Mostly Cloudy
4:30 AM 44.6 °F - 44.6 °F 100% 29.77 in 5.0 mi Variable 1.2 mph - N/A   Mostly Cloudy
5:00 AM 44.6 °F 40.7 °F 44.6 °F 100% 29.77 in 5.0 mi East 6.9 mph - N/A Rain Light Rain
5:30 AM 44.6 °F 42.2 °F 44.6 °F 100% 29.77 in 5.0 mi NE 4.6 mph - N/A   Mostly Cloudy
6:00 AM 44.6 °F 40.2 °F 44.6 °F 100% 29.77 in 3.1 mi East 8.1 mph - N/A   Mostly Cloudy
6:30 AM 44.6 °F 40.7 °F 44.6 °F 100% 29.77 in 2.2 mi ENE 6.9 mph - N/A   Mostly Cloudy
7:00 AM 44.6 °F 41.4 °F 44.6 °F 100% 29.77 in 1.7 mi East 5.8 mph - N/A   Overcast
7:30 AM 44.6 °F 41.4 °F 44.6 °F 100% 29.77 in 1.6 mi East 5.8 mph - N/A   Overcast
8:00 AM 46.4 °F 43.5 °F 46.4 °F 100% 29.77 in 1.6 mi East 5.8 mph - N/A   Overcast
8:30 AM 44.6 °F 40.7 °F 44.6 °F 100% 29.80 in 1.6 mi East 6.9 mph - N/A   Overcast
9:00 AM 46.4 °F - 46.4 °F 100% 29.80 in - Variable 1.2 mph - N/A   Overcast
9:30 AM 46.4 °F - 46.4 °F 100% 29.80 in 2.5 mi Variable 2.3 mph - N/A   Overcast
10:00 AM 48.2 °F - 44.6 °F 87% 29.80 in 3.7 mi Variable 3.5 mph - N/A   Overcast
10:30 AM 48.2 °F - 46.4 °F 93% 29.80 in 3.7 mi Variable 3.5 mph - N/A   Mostly Cloudy
11:00 AM 48.2 °F - 46.4 °F 93% 29.80 in 3.7 mi NW 9.2 mph - N/A   Overcast
11:30 AM 50.0 °F - 48.2 °F 94% 29.83 in 3.7 mi WNW 6.9 mph - N/A   Mostly Cloudy
12:00 PM 51.8 °F - 50.0 °F 94% 29.83 in 4.3 mi WNW 8.1 mph - N/A   Mostly Cloudy
12:30 PM 50.0 °F - 48.2 °F 94% 29.83 in 6.2 mi North 8.1 mph - N/A   Mostly Cloudy
1:00 PM 51.8 °F - 46.4 °F 82% 29.83 in 6.2 mi NNW 6.9 mph - N/A   Mostly Cloudy
1:30 PM 53.6 °F - 46.4 °F 77% 29.83 in 6.2 mi NW 5.8 mph - N/A   Mostly Cloudy
2:00 PM 53.6 °F - 44.6 °F 72% 29.83 in 6.2 mi North 6.9 mph - N/A   Mostly Cloudy
2:30 PM 53.6 °F - 44.6 °F 72% 29.83 in 6.2 mi North 6.9 mph - N/A   Scattered Clouds
3:00 PM 55.4 °F - 42.8 °F 63% 29.83 in 6.2 mi North 4.6 mph - N/A   Scattered Clouds
3:30 PM 55.4 °F - 42.8 °F 63% 29.83 in 6.2 mi WNW 8.1 mph - N/A Rain Light Rain Showers
4:00 PM 51.8 °F - 48.2 °F 88% 29.83 in 6.2 mi West 8.1 mph - N/A Rain Light Rain Showers
4:30 PM 55.4 °F - 46.4 °F 72% 29.83 in 6.2 mi West 5.8 mph - N/A   Scattered Clouds
5:00 PM 55.4 °F - 44.6 °F 67% 29.83 in 6.2 mi NNW 4.6 mph - N/A   Mostly Cloudy
5:30 PM 57.2 °F - 41.0 °F 55% 29.83 in 6.2 mi West 10.4 mph - N/A   Scattered Clouds
6:00 PM 57.2 °F - 39.2 °F 51% 29.83 in 6.2 mi West 13.8 mph - N/A   Scattered Clouds
6:30 PM 55.4 °F - 41.0 °F 58% 29.83 in 6.2 mi West 10.4 mph - N/A   Partly Cloudy
7:00 PM 55.4 °F - 41.0 °F 58% 29.86 in - West 4.6 mph - N/A   Clear
7:30 PM 51.8 °F - 41.0 °F 67% 29.86 in - Variable 3.5 mph - N/A   Clear
8:00 PM 51.8 °F - 42.8 °F 71% 29.86 in - Variable 2.3 mph - N/A   Clear
8:30 PM 48.2 °F - 41.0 °F 76% 29.86 in - WSW 4.6 mph - N/A   Clear
9:00 PM 46.4 °F 44.3 °F 41.0 °F 81% 29.89 in - SW 4.6 mph - N/A   Clear
9:30 PM 44.6 °F - 39.2 °F 81% 29.89 in - Calm Calm - N/A   Clear
10:00 PM 42.8 °F - 39.2 °F 87% 29.89 in - Variable 1.2 mph - N/A   Clear
10:30 PM 42.8 °F - 41.0 °F 93% 29.89 in - Variable 2.3 mph - N/A   Clear
11:00 PM 37.4 °F - 35.6 °F 93% 29.89 in - Variable 2.3 mph - N/A   Clear
11:30 PM 39.2 °F - 39.2 °F 100% 29.92 in - Calm Calm - N/A   Clear